Location: Asheville, NC
(35.6000°N, 82.5500°W)
Time: 14:00:30
(UTC-04:00)

SEEDS - Pass Details

Date: 13 March 2018
Orbit: 586 x 606 km, 97.5° (Epoch: 18 June)

Event Time Altitude Azimuth Distance (km) Brightness Sun altitude
Rises 20:19:08 0° 181° (S) 2,797 ? -9.6°
Reaches altitude 10° 20:21:21 10° 188° (S) 1,903 ? -10.0°
Maximum altitude 20:25:18 45° 261° (W) 809 ? -10.8°
Drops below altitude 10° 20:29:19 10° 335° (NNW) 1,926 ? -11.6°
Sets 20:31:34 0° 341° (NNW) 2,835 ? -12.1°
